Waarnemingen

Advertentie
Mijn weer
Lichtenhain-Mittelndorf, Duitsland (10591): temperatuur & dauwpunt: 15.01.2017 18:00:00 - 21.01.2017 18:00:00 (CET)Lichtenhain-Mittelndorf, Duitsland (10591): temperatuur 5cm & temperatuur -5cm: 15.01.2017 18:00:00 - 21.01.2017 18:00:00 (CET)Lichtenhain-Mittelndorf, Duitsland (10591): temperatuur -20cm & temperatuur -100cm: 15.01.2017 18:00:00 - 21.01.2017 18:00:00 (CET)Lichtenhain-Mittelndorf, Duitsland (10591): windsnelheid & windstoten: 15.01.2017 18:00:00 - 21.01.2017 18:00:00 (CET)Lichtenhain-Mittelndorf, Duitsland (10591): windrichting: 15.01.2017 18:00:00 - 21.01.2017 18:00:00 (CET)Lichtenhain-Mittelndorf, Duitsland (10591): luchtdruk: 15.01.2017 18:00:00 - 21.01.2017 18:00:00 (CET)Lichtenhain-Mittelndorf, Duitsland (10591): zicht: 15.01.2017 18:00:00 - 21.01.2017 18:00:00 (CET)Lichtenhain-Mittelndorf, Duitsland (10591): Zonneschijnduur: 15.01.2017 18:00:00 - 21.01.2017 18:00:00 (CET)Lichtenhain-Mittelndorf, Duitsland (10591): neerslag: 15.01.2017 18:00:00 - 21.01.2017 18:00:00 (CET)
Datum & Tijd tt [°C] td [°C] tt 5cm [°C] tt -5cm [°C] tt -20cm [°C] tt -100cm [°C] ff [km/u] ff [kn] fx [km/u] fx [kn] dd ppp [hPa] vv [km] sd [min] rr [mm]
21.01.2017 18:00:00 -1,8 -4,6 -0,3 -0,1 0,4 3,8 10 5 19 10 ZO 1033,2 5 0 0,0
21.01.2017 17:00:00 -0,4 -3,8 -0,4 -0,1 0,4 3,8 10 5 20 11 ZZO 1032,8 6 20 0,0
21.01.2017 16:00:00 0,2 -3,7 -0,5 -0,1 0,4 3,8 11 6 21 11 ZZO 1032,6 6 60 0,0
21.01.2017 15:00:00 0,7 -3,9 -0,5 -0,1 0,4 3,8 10 5 18 10 ZO 1032,7 5 60 0,0
21.01.2017 14:00:00 0,8 -4,0 -0,5 -0,1 0,4 3,8 9 5 13 7 ZZO 1033,0 5 58 0,0
21.01.2017 13:00:00 -0,4 -4,4 -0,5 -0,1 0,4 3,8 9 5 11 6 OZO 1033,8 4,4 0 0,0
21.01.2017 12:00:00 -1,4 -5,1 -0,5 -0,1 0,4 3,8 6 3 11 6 OZO 1034,5 4,2 0 0,0
21.01.2017 11:00:00 -2,3 -5,8 -0,5 -0,1 0,4 3,8 6 3 13 7 O 1034,9 4,2 0 0,0
21.01.2017 10:00:00 -3,3 -6,1 -0,5 -0,1 0,4 3,8 8 4 11 6 O 1035,2 4,3 0 0,0
21.01.2017 09:00:00 -4,6 -7,1 -0,5 -0,1 0,4 3,8 7 4 12 6 O 1035,2 4,4 0 0,0
21.01.2017 08:00:00 -5,1 -7,7 -0,3 -0,1 0,4 3,8 6 4 13 7 O 1034,9 4,7 0 0,0
21.01.2017 07:00:00 -5,8 -8,3 -0,3 -0,1 0,4 3,8 9 5 13 7 O 1035,0 4,5 0 0,0
21.01.2017 06:00:00 -5,6 -8,1 -0,4 -0,1 0,4 3,8 9 5 10 6 O 1034,7 4,7 0 0,0
21.01.2017 05:00:00 -6,0 -7,6 -0,4 -0,1 0,4 3,8 7 4 11 6 OZO 1035,0 4,2 0 0,0
21.01.2017 04:00:00 -5,6 -7,9 -0,4 -0,1 0,4 3,8 5 3 11 6 NO 1035,2 4,3 0 0,0
21.01.2017 03:00:00 -5,0 -7,5 -0,4 -0,1 0,4 3,8 10 5 13 7 O 1035,3 4,3 0 0,0
21.01.2017 02:00:00 -5,0 -7,3 -0,4 -0,1 0,4 3,8 9 5 14 7 O 1035,1 4,2 0 0,0
21.01.2017 01:00:00 -3,8 -6,1 -0,4 -0,1 0,4 3,8 5 3 11 6 OZO 1035,3 4,2 0 0,0
21.01.2017 00:00:00 -3,3 -6,2 -0,4 -0,1 0,4 3,8 9 5 11 6 OZO 1035,6 4,5 0 0,0
20.01.2017 23:00:00 -3,3 -6,0 -0,4 -0,1 0,4 3,8 6 3 10 5 OZO 1035,9 4,4 0 0,0
20.01.2017 22:00:00 -3,2 -5,9 -0,4 -0,1 0,4 3,8 6 4 11 6 OZO 1036,0 4,6 0 0,0
20.01.2017 21:00:00 -3,2 -5,8 -0,5 -0,1 0,4 3,8 6 4 10 6 OZO 1036,1 4,5 0 0,0
20.01.2017 20:00:00 -3,1 -5,9 -0,5 -0,1 0,4 3,8 6 3 11 6 O 1036,0 4,5 0 0,0
20.01.2017 19:00:00 -3,0 -5,8 -0,5 -0,1 0,4 3,8 7 4 11 6 OZO 1036,1 4,7 0 0,0
20.01.2017 18:00:00 -2,8 -5,8 -0,6 -0,1 0,4 3,8 6 4 11 6 OZO 1036,2 5 0 0,0
20.01.2017 17:00:00 -2,6 -6,1 -0,6 -0,1 0,4 3,8 5 3 10 5 OZO 1036,2 5 0 0,0
20.01.2017 16:00:00 -2,5 -6,1 -0,6 -0,1 0,4 3,8 7 4 15 8 O 1036,2 6 0 0,0
20.01.2017 15:00:00 -2,4 -6,0 -0,7 -0,1 0,4 3,8 6 4 15 8 OZO 1036,1 5 0 0,0
20.01.2017 14:00:00 -2,8 -6,6 -0,7 -0,1 0,4 3,8 9 5 16 9 ONO 1036,6 5 0 0,0
20.01.2017 13:00:00 -3,5 -7,0 -0,7 -0,1 0,4 3,8 10 5 16 9 ZO 1037,3 6 0 0,0
20.01.2017 12:00:00 -3,3 -6,9 -0,8 -0,1 0,4 3,8 4 2 13 7 OZO 1037,8 6 2 0,0
20.01.2017 11:00:00 -4,6 -7,6 -0,8 -0,1 0,4 3,8 5 3 10 6 O 1038,5 4,6 0 0,0
20.01.2017 10:00:00 -5,7 -8,3 -0,8 -0,1 0,4 3,8 5 3 14 8 ONO 1038,7 4,2 0 0,0
20.01.2017 09:00:00 -6,1 -8,6 -0,8 -0,1 0,4 3,8 10 6 14 8 OZO 1038,4 4,9 0 0,0
20.01.2017 08:00:00 -6,6 -8,7 -0,8 -0,1 0,4 3,8 6 3 14 7 ZO 1038,2 4,7 0 0,0
20.01.2017 07:00:00 -6,9 -8,5 -0,8 -0,1 0,4 3,8 8 5 14 8 ZO 1038,4 4,3 0 0,0
20.01.2017 06:00:00 -6,6 -8,4 -0,8 -0,1 0,4 3,8 9 5 16 8 ZO 1038,1 4,8 0 0,0
20.01.2017 05:00:00 -6,6 -8,6 -0,8 -0,1 0,4 3,8 6 4 16 9 ZO 1038,2 5 0 0,0
20.01.2017 04:00:00 -6,6 -8,6 -0,8 -0,1 0,4 3,8 5 3 11 6 O 1038,5 6 0 0,0
20.01.2017 03:00:00 -6,7 -8,7 -0,8 -0,1 0,4 3,8 6 3 15 8 ZZO 1038,9 7 0 0,0
20.01.2017 02:00:00 -6,7 -8,6 -0,8 -0,1 0,4 3,8 7 4 13 7 OZO 1039,1 7 0 0,0
20.01.2017 01:00:00 -6,9 -8,9 -0,8 -0,1 0,4 3,8 4 2 9 5 OZO 1039,2 8 0 0,0
20.01.2017 00:00:00 -7,1 -9,0 -0,7 -0,1 0,4 3,8 4 2 13 7 O 1039,3 9 0 0,0
19.01.2017 23:00:00 -7,3 -8,8 -0,7 -0,1 0,4 3,8 4 2 12 6 O 1039,8 8 0 0,0
19.01.2017 22:00:00 -8,3 -9,7 -0,7 -0,1 0,4 3,8 4 2 11 6 O 1039,8 7 0 0,0
19.01.2017 21:00:00 -8,0 -9,5 -0,7 -0,1 0,4 3,8 5 3 10 5 O 1039,9 8 0 0,0
19.01.2017 20:00:00 -8,1 -9,1 -0,7 -0,1 0,4 3,8 6 3 9 5 ZO 1039,9 7 0 0,0
19.01.2017 19:00:00 -7,3 -8,3 -0,7 -0,1 0,4 3,8 7 4 9 5 OZO 1039,5 9 0 0,0
19.01.2017 18:00:00 -7,3 -9,0 -0,7 -0,1 0,4 3,8 3 2 10 5 WZW 1039,3 7 0 0,0
19.01.2017 17:00:00 -6,6 -9,0 -0,7 -0,1 0,4 3,8 6 3 10 5 ZZW 1039,3 11 30 0,0
19.01.2017 16:00:00 -4,7 -9,7 -0,7 -0,1 0,4 3,8 3 1 6 3 N 1039,1 15 60 0,0
19.01.2017 15:00:00 -4,7 -10,7 -0,7 -0,1 0,4 3,8 3 2 5 3 WNW 1039,6 16 60 0,0
19.01.2017 14:00:00 -4,5 -11,5 -0,8 -0,1 0,4 3,8 1 1 4 2 NNO 1039,6 18 60 0,0
19.01.2017 13:00:00 -6,8 -12,0 -0,8 -0,1 0,4 3,8 3 1 6 4 NO 1040,4 10 60 0,0
19.01.2017 12:00:00 -9,3 -12,3 -0,8 -0,1 0,4 3,8 4 2 5 3 NO 1041,3 8 60 0,0
19.01.2017 11:00:00 -10,4 -12,4 -0,8 -0,1 0,4 3,8 3 2 6 3 OZO 1041,5 7 56 0,0
19.01.2017 10:00:00 -12,0 -13,6 -0,7 -0,1 0,4 3,8 3 1 6 3 NNO 1041,9 0,8 2 0,0
19.01.2017 09:00:00 -12,4 -13,3 -0,7 -0,1 0,4 3,8 5 3 6 4 NO 1041,9 0,2 0 0,0
19.01.2017 08:00:00 -11,7 -12,6 -0,7 -0,1 0,4 3,8 3 2 6 3 O 1041,2 0,2 0 0,0
19.01.2017 07:00:00 -11,3 -12,3 -0,7 -0,1 0,4 3,8 4 2 7 4 NNO 1041,1 0,6 0 0,0
19.01.2017 06:00:00 -11,0 -12,2 -0,6 -0,1 0,4 3,8 5 3 6 4 NNO 1041,0 3,3 0 0,0
19.01.2017 05:00:00 -11,1 -12,2 -0,6 -0,1 0,4 3,8 0 0 5 3 N 1041,0 4,9 0 0,0
19.01.2017 04:00:00 -10,2 -11,6 -0,6 -0,1 0,4 3,8 2 1 7 4 O 1041,6 4,8 0 0,0
19.01.2017 03:00:00 -10,5 -11,6 -0,6 -0,1 0,4 3,8 3 2 6 3 Z 1041,6 4,3 0 0,0
19.01.2017 02:00:00 -10,1 -11,1 -0,5 -0,1 0,4 3,8 5 3 6 4 NNO 1041,5 4,0 0 0,0
19.01.2017 01:00:00 -9,2 -10,2 -0,5 -0,1 0,4 3,8 2 1 8 4 NNO 1041,0 3,1 0 0,0
19.01.2017 00:00:00 -9,5 -10,6 -0,5 -0,1 0,4 3,8 6 3 10 6 O 1041,5 3,5 0 0,0
18.01.2017 23:00:00 -9,1 -10,2 -0,5 -0,1 0,4 3,8 4 2 7 4 NNO 1042,1 5 0 0,0
18.01.2017 22:00:00 -8,5 -9,6 -0,5 -0,1 0,4 3,8 4 2 11 6 NO 1042,1 4,9 0 0,0
18.01.2017 21:00:00 -8,4 -9,7 -0,5 -0,1 0,4 3,8 5 3 9 5 NNO 1041,8 6 0 0,0
18.01.2017 20:00:00 -8,7 -10,1 -0,5 -0,1 0,4 3,8 9 5 13 7 O 1042,0 7 0 0,0
18.01.2017 19:00:00 -7,2 -8,7 -0,5 -0,1 0,4 3,8 5 3 16 9 ONO 1042,0 7 0 0,0
18.01.2017 18:00:00 -6,9 -8,3 -0,5 -0,1 0,4 3,8 10 5 14 8 NNO 1041,9 8 0 0,0
18.01.2017 17:00:00 -6,7 -8,2 -0,5 -0,1 0,4 3,8 3 1 11 6 ONO 1042,0 9 0 0,0
18.01.2017 16:00:00 -5,6 -7,5 -0,5 -0,1 0,4 3,8 7 4 14 7 NO 1041,8 8 0 0,0
18.01.2017 15:00:00 -5,1 -7,7 -0,5 -0,1 0,4 3,8 9 5 16 8 NNO 1041,5 10 0 0,0
18.01.2017 14:00:00 -5,2 -8,1 -0,5 -0,1 0,4 3,8 10 5 18 10 N 1041,4 9 14 0,0
18.01.2017 13:00:00 -4,6 -7,8 -0,5 -0,1 0,4 3,8 6 4 13 7 N 1041,4 10 3 0,0
18.01.2017 12:00:00 -5,4 -8,9 -0,5 -0,1 0,4 3,8 6 4 11 6 NNW 1041,8 10 47 0,0
18.01.2017 11:00:00 -6,4 -8,8 -0,5 -0,1 0,4 3,8 8 4 11 6 ONO 1042,2 9 0 0,0
18.01.2017 10:00:00 -6,5 -8,0 -0,5 -0,1 0,4 3,8 3 1 8 4 ZO 1042,2 7 0 0,0
18.01.2017 09:00:00 -7,1 -8,5 -0,4 -0,1 0,3 3,8 5 3 8 4 N 1042,3 10 0 0,0
18.01.2017 08:00:00 -6,9 -8,3 -0,4 -0,1 0,3 3,8 5 3 13 7 N 1041,7 11 0 0,0
18.01.2017 07:00:00 -6,5 -8,1 -0,4 -0,1 0,3 3,8 8 4 13 7 NO 1041,2 11 0 0,0
18.01.2017 06:00:00 -6,9 -8,2 -0,3 -0,1 0,3 3,8 5 3 7 4 NNW 1041,0 10 0 0,0
18.01.2017 05:00:00 -6,8 -8,2 -0,3 -0,1 0,3 3,9 6 4 11 6 NNO 1040,8 10 0 0,0
18.01.2017 04:00:00 -7,9 -9,0 -0,3 -0,1 0,3 3,9 3 2 11 6 NO 1040,9 7 0 0,0
18.01.2017 03:00:00 -7,4 -8,6 -0,3 -0,1 0,3 3,9 10 6 14 8 NO 1041,4 9 0 0,0
18.01.2017 02:00:00 -7,2 -8,3 -0,2 -0,1 0,3 3,9 8 4 10 6 NO 1041,1 8 0 0,0
18.01.2017 01:00:00 -6,8 -7,4 -0,3 -0,1 0,3 3,9 1 1 9 5 W 1040,4 7 0 0,0
18.01.2017 00:00:00 -6,2 -7,0 -0,2 -0,1 0,3 3,9 7 4 10 5 N 1040,2 8 0 0,0
17.01.2017 23:00:00 -6,0 -7,0 -0,2 -0,1 0,3 3,9 7 4 13 7 NNO 1040,0 8 0 0,0
17.01.2017 22:00:00 -5,0 -6,4 -0,3 -0,1 0,3 3,9 9 5 15 8 NNO 1039,6 9 0 0,0
17.01.2017 21:00:00 -3,8 -5,9 -0,2 -0,1 0,3 3,9 10 6 18 10 NNO 1039,4 12 0 0,0
17.01.2017 20:00:00 -3,3 -5,5 -0,2 -0,1 0,3 3,9 13 7 21 11 NNO 1038,9 13 0 0,0
17.01.2017 19:00:00 -3,2 -5,2 -0,2 -0,1 0,3 3,9 5 3 12 6 NNO 1038,3 14 0 0,0
17.01.2017 18:00:00 -3,1 -5,2 -0,2 -0,1 0,3 3,9 8 4 14 8 N 1037,9 15 0 0,0
17.01.2017 17:00:00 -2,9 -5,1 -0,3 -0,1 0,3 3,9 9 5 22 12 N 1037,2 18 0 0,0
17.01.2017 16:00:00 -2,7 -4,8 -0,3 -0,1 0,3 3,9 6 4 14 8 N 1036,7 15 0 0,0
17.01.2017 15:00:00 -2,7 -4,8 -0,3 -0,1 0,3 3,9 8 4 18 10 N 1036,3 12 0 0,0
17.01.2017 14:00:00 -2,4 -4,8 -0,3 -0,1 0,3 3,9 8 4 16 9 N 1036,2 18 1 0,0
17.01.2017 13:00:00 -2,4 -5,1 -0,3 -0,1 0,3 3,9 8 5 15 8 NNO 1036,1 17 0 0,0
17.01.2017 12:00:00 -3,0 -4,6 -0,3 -0,1 0,3 3,9 9 5 15 8 NNW 1036,0 8 0 0,0
17.01.2017 11:00:00 -3,4 -5,0 -0,3 -0,1 0,3 3,9 13 7 17 9 NNW 1035,8 10 0 0,1
17.01.2017 10:00:00 -3,6 -4,7 -0,3 -0,1 0,3 3,9 7 4 12 7 NW 1035,3 4,6 0 0,1
17.01.2017 09:00:00 -4,1 -5,0 -0,3 -0,1 0,3 3,9 9 5 13 7 NNW 1034,8 5 0 0,1
17.01.2017 08:00:00 -4,4 -5,2 -0,2 -0,1 0,3 3,9 9 5 13 7 NW 1034,1 2,1 0 0,0
17.01.2017 07:00:00 -4,4 -5,2 -0,2 -0,1 0,3 3,9 8 5 13 7 WNW 1033,5 6 0 0,2
17.01.2017 06:00:00 -4,3 -5,1 -0,2 -0,1 0,3 3,9 8 4 11 6 NW 1033,0 3,5 0 0,2
17.01.2017 05:00:00 -4,4 -5,1 -0,2 -0,1 0,3 3,9 9 5 15 8 WNW 1032,6 4,5 0 0,1
17.01.2017 04:00:00 -4,4 -5,1 -0,2 -0,1 0,3 3,9 10 5 13 7 NW 1032,3 6 0 0,0
17.01.2017 03:00:00 -4,5 -5,5 -0,3 -0,1 0,3 3,9 6 4 12 7 WNW 1031,9 8 0 0,0
17.01.2017 02:00:00 -4,7 -5,2 -0,2 -0,1 0,3 3,9 9 5 14 8 NNW 1031,7 3,6 0 0,0
17.01.2017 01:00:00 -5,0 -5,8 -0,3 -0,1 0,3 3,9 6 3 8 4 NW 1031,3 7 0 0,0
17.01.2017 00:00:00 -5,1 -5,9 -0,2 -0,1 0,3 3,9 4 2 10 5 W 1031,0 3,4 0 0,0
16.01.2017 23:00:00 -5,2 -6,1 -0,2 -0,1 0,3 3,9 8 4 14 7 W 1030,8 7 0 0,0
16.01.2017 22:00:00 -5,3 -6,4 -0,2 -0,1 0,3 3,9 6 3 14 7 WNW 1030,5 4,8 0 0,0
16.01.2017 21:00:00 -5,3 -6,8 -0,2 -0,1 0,3 3,9 10 5 18 10 NW 1029,9 20 0 0,0
16.01.2017 20:00:00 -5,1 -6,2 -0,2 -0,1 0,3 3,9 11 6 21 12 NW 1029,3 9 0 0,0
16.01.2017 19:00:00 -5,0 -5,9 -0,2 -0,1 0,3 3,9 18 10 24 13 NNW 1028,5 9 0 0,0
16.01.2017 18:00:00 -4,1 -5,5 -0,2 -0,1 0,3 3,9 13 7 21 11 NW 1027,5 15 0 0,0
16.01.2017 17:00:00 -3,4 -5,5 -0,3 -0,1 0,3 3,9 13 7 19 10 NNW 1026,8 35 0 0,0
16.01.2017 16:00:00 -3,1 -5,5 -0,2 -0,1 0,3 3,9 8 5 26 14 NNW 1026,1 38 6 0,0
16.01.2017 15:00:00 -3,2 -5,4 -0,3 -0,1 0,3 3,9 14 7 23 12 NNW 1025,2 18 2 0,0
16.01.2017 14:00:00 -2,1 -3,9 -0,3 -0,1 0,3 3,9 14 8 20 11 N 1024,6 21 0 0,0
16.01.2017 13:00:00 -1,9 -3,0 -0,2 -0,1 0,3 3,9 12 6 18 10 NNW 1024,2 9 1 0,1
16.01.2017 12:00:00 -2,5 -3,6 -0,2 -0,1 0,3 3,9 14 8 20 11 NW 1024,1 4,1 0 0,0
16.01.2017 11:00:00 -2,3 -3,5 -0,2 -0,1 0,3 3,9 14 7 19 11 NNW 1024,0 9 0 0,0
16.01.2017 10:00:00 -2,6 -3,3 -0,2 -0,1 0,3 3,9 14 8 23 12 NNW 1023,6 5 0 0,0
16.01.2017 09:00:00 -2,7 -3,3 -0,3 -0,1 0,3 3,9 17 9 22 12 NNW 1023,0 8 0 0,0
16.01.2017 08:00:00 -2,5 -3,2 -0,2 -0,1 0,3 3,9 12 6 18 10 NNW 1022,2 10 0 0,0
16.01.2017 07:00:00 -2,5 -3,0 -0,2 -0,1 0,3 3,9 6 3 14 8 WNW 1021,5 2,7 0 0,0
16.01.2017 06:00:00 -2,6 -3,1 -0,2 -0,1 0,3 3,9 6 4 11 6 W 1021,1 3,2 0 1,3
16.01.2017 05:00:00 -2,5 -3,0 -0,2 -0,1 0,3 3,9 6 4 13 7 W 1020,8 0,9 0 0,0
16.01.2017 04:00:00 -2,5 -3,3 -0,2 -0,1 0,3 3,9 10 5 16 9 WNW 1020,6 5 0 0,1
16.01.2017 03:00:00 -2,5 -3,3 -0,2 -0,1 0,3 3,9 7 4 14 8 WNW 1020,4 6 0 0,1
16.01.2017 02:00:00 -2,4 -3,0 -0,2 -0,1 0,3 3,9 9 5 13 7 NW 1020,0 3,7 0 0,0
16.01.2017 01:00:00 -2,2 -2,8 -0,2 -0,1 0,3 3,9 8 5 14 8 WNW 1019,9 3,5 0 0,0
16.01.2017 00:00:00 -2,2 -2,9 -0,2 -0,1 0,3 3,9 11 6 17 9 NW 1019,8 7 0 0,0
15.01.2017 23:00:00 -2,1 -2,6 -0,2 -0,1 0,3 3,9 11 6 18 10 WNW 1019,4 6 0 0,1
15.01.2017 22:00:00 -2,0 -2,4 -0,2 -0,1 0,3 3,9 10 5 19 11 W 1019,0 2,7 0 0,3
15.01.2017 21:00:00 -2,0 -2,5 -0,2 -0,1 0,3 3,9 12 7 22 12 WZW 1018,8 1,3 0 0,4
15.01.2017 20:00:00 -1,9 -2,3 -0,2 -0,1 0,3 3,9 14 8 22 12 W 1018,5 1,8 0 0,4
15.01.2017 19:00:00 -1,8 -2,4 -0,2 -0,1 0,3 3,9 13 7 29 16 W 1018,2 1,6 0 0,2
15.01.2017 18:00:00 -1,6 -2,5 -0,2 -0,1 0,3 3,9 17 9 31 17 W 1017,8 14 0 0,1

tt = temperatuur
td = dauwpunt
tt 5cm = temperatuur 5cm
tt -5cm = temperatuur -5cm
tt -20cm = temperatuur -20cm
tt -100cm = temperatuur -100cm
ff = windsnelheid
fx = windstoten
dd = windrichting
ppp = luchtdruk
vv = zicht
sd = Zonneschijnduur
rr = neerslag

Weerstations in de omgeving